DW3560 Weather Reports


time (UTC)temp
F
wind
direction
speed
knots
gust
knots
rain 1hr
in
rain 24hr
in
rain mn
in
humidity
%
barometer
mb
20260507004023 68 344 1.7 5.2 0.00 0.00 0.00 70 1020.1
20260507003502 68 346 1.7 5.2 0.00 0.00 0.00 70 1020.1
20260507003002 68 333 0.9 3.5 0.00 0.00 0.00 70 1020.1
20260507002502 68 331 0.9 7.0 0.00 0.00 0.00 70 1020.1
20260507002023 68 339 1.7 7.8 0.00 0.00 0.00 70 1020.1
20260507001502 69 341 1.7 7.8 0.00 0.00 0.00 70 1020.1
20260507001023 69 342 0.9 7.0 0.00 0.00 0.00 69 1020.1
20260507000502 69 345 1.7 4.3 0.00 0.00 0.00 69 1020.1
20260507000002 69 351 1.7 4.3 0.00 0.00 0.00 68 1020.1
20260506235502 69 345 1.7 8.7 0.00 0.00 0.00 68 1020.1
20260506235023 69 341 1.7 8.7 0.00 0.00 0.00 68 1020.1
20260506234502 70 351 1.7 8.7 0.00 0.00 0.00 68 1020.1
20260506234002 70 337 0.9 4.3 0.00 0.00 0.00 68 1020.1
20260506233523 70 324 0.9 4.3 0.00 0.00 0.00 68 1020.1
20260506233002 70 329 0.9 4.3 0.00 0.00 0.00 67 1020.1
20260506232502 70 337 0.9 7.0 0.00 0.00 0.00 67 1020.1
20260506232002 71 345 1.7 7.0 0.00 0.00 0.00 67 1020.1
20260506231502 71 345 1.7 7.8 0.00 0.00 0.00 67 1020.1
20260506231002 71 337 1.7 7.8 0.00 0.00 0.00 67 1020.1
20260506230502 71 342 1.7 7.8 0.00 0.00 0.00 67 1020.1
20260506230002 71 347 2.6 7.8 0.00 0.00 0.00 66 1020.1
20260506225502 72 339 1.7 7.0 0.00 0.00 0.00 66 1020.1
20260506225023 72 336 0.9 7.0 0.00 0.00 0.00 66 1020.1
20260506224502 72 340 1.7 7.8 0.00 0.00 0.00 67 1020.1
20260506224002 72 337 1.7 7.8 0.00 0.00 0.00 66 1020.1
20260506223502 72 332 1.7 5.2 0.00 0.00 0.00 66 1020.1
20260506223002 72 337 1.7 5.2 0.00 0.00 0.00 66 1020.1
20260506222502 72 342 2.6 7.0 0.00 0.00 0.00 66 1020.1
20260506222002 72 335 1.7 7.0 0.00 0.00 0.00 66 1020.1
20260506221502 72 230 0.9 5.2 0.00 0.00 0.00 66 1020.1
20260506221002 72 223 0.9 7.0 0.00 0.00 0.00 66 1020.1
20260506220502 72 251 0.9 10.4 0.00 0.00 0.00 66 1020.1
20260506220003 72 258 0.9 10.4 0.00 0.00 0.00 65 1020.1
20260506215502 72 275 0.9 3.5 0.00 0.00 0.00 66 1020.1
20260506215002 72 283 0.9 4.3 0.00 0.00 0.00 64 1020.1
20260506214502 72 349 0.9 7.8 0.00 0.00 0.00 64 1020.1
20260506214002 72 347 1.7 7.8 0.00 0.00 0.00 64 1020.1
20260506213502 72 352 0.9 7.8 0.00 0.00 0.00 64 1020.1
20260506213023 72 358 0.9 7.0 0.00 0.00 0.00 65 1020.1
20260506212502 72 358 0.9 7.0 0.00 0.00 0.00 65 1020.1
20260506212002 72 3 0.9 4.3 0.00 0.00 0.00 65 1020.1
20260506211523 72 346 1.7 7.0 0.00 0.00 0.00 65 1020.1
20260506211002 71 340 1.7 7.0 0.00 0.00 0.00 65 1020.1
20260506210502 71 340 0.9 5.2 0.00 0.00 0.00 67 1020.1
20260506210002 70 356 1.7 8.7 0.00 0.00 0.00 67 1020.1
20260506205502 70 355 1.7 8.7 0.00 0.00 0.00 66 1020.1
20260506205002 70 344 1.7 5.2 0.00 0.00 0.00 68 1020.1
20260506204502 69 346 1.7 5.2 0.00 0.00 0.00 67 1020.1
20260506204002 69 333 0.9 5.2 0.00 0.00 0.00 69 1020.1
20260506203502 69 332 0.9 4.3 0.00 0.00 0.00 69 1020.1
20260506203002 68 345 1.7 8.7 0.00 0.00 0.00 69 1020.1
20260506202523 68 345 2.6 8.7 0.00 0.00 0.00 68 1020.1
20260506202002 68 342 1.7 5.2 0.00 0.00 0.00 69 1020.1
20260506201502 68 339 1.7 5.2 0.00 0.00 0.00 70 1020.1
20260506201023 68 324 0.9 4.3 0.00 0.00 0.00 70 1020.1
20260506200502 68 345 1.7 5.2 0.00 0.00 0.00 71 1020.1
20260506200002 67 350 1.7 7.0 0.00 0.00 0.00 69 1020.1
20260506195502 67 344 1.7 7.0 0.00 0.00 0.00 71 1020.1
20260506195002 67 345 1.7 5.2 0.00 0.00 0.00 71 1020.1
20260506194523 66 344 1.7 5.2 0.00 0.00 0.00 72 1020.1
20260506194002 66 334 0.9 5.2 0.00 0.00 0.00 71 1020.1
20260506193502 66 317 1.7 5.2 0.00 0.00 0.00 72 1020.1
20260506193002 65 321 1.7 5.2 0.00 0.00 0.00 73 1020.1
20260506192502 65 339 1.7 4.3 0.00 0.00 0.00 73 1020.1
20260506192023 64 345 1.7 4.3 0.00 0.00 0.00 74 1020.1
20260506191502 64 315 0.9 4.3 0.00 0.00 0.00 74 1018.7
20260506191023 64 305 0.9 3.5 0.00 0.00 0.00 74 1018.7
20260506190502 63 251 0.9 3.5 0.00 0.00 0.00 76 1018.7
20260506190002 63 218 0.9 3.5 0.00 0.00 0.00 75 1018.7
20260506185502 63 247 0.9 3.5 0.00 0.00 0.00 74 1018.7
20260506185002 63 253 0.9 3.5 0.00 0.00 0.00 74 1018.7
20260506184502 63 260 0.9 5.2 0.00 0.00 0.00 74 1018.7
20260506184002 63 263 0.9 5.2 0.00 0.00 0.00 74 1018.7
20260506183503 63 239 0.9 5.2 0.00 0.00 0.00 73 1018.7
20260506183002 63 219 1.7 5.2 0.00 0.00 0.00 74 1018.7
20260506182502 64 227 1.7 5.2 0.00 0.00 0.00 73 1018.7
20260506182002 64 314 0.9 3.5 0.00 0.00 0.00 74 1018.7
20260506181502 64 347 1.7 4.3 0.00 0.00 0.00 75 1018.7
20260506181023 63 340 1.7 4.3 0.00 0.00 0.00 74 1018.7
20260506180502 63 316 0.9 3.5 0.00 0.00 0.00 75 1018.7
20260506180002 63 340 0.9 5.2 0.00 0.00 0.00 75 1018.7
20260506175502 63 345 1.7 5.2 0.00 0.00 0.00 75 1018.7
20260506175002 62 349 0.9 4.3 0.00 0.00 0.00 76 1018.7
20260506174502 62 352 0.9 3.5 0.00 0.00 0.00 76 1018.7
20260506174002 62 345 0.9 3.5 0.00 0.01 0.00 76 1018.7
20260506173502 61 342 0.9 3.5 0.00 0.01 0.00 77 1018.7
20260506173002 61 333 0.9 3.5 0.00 0.01 0.00 77 1018.7
20260506172502 61 315 0.9 3.5 0.00 0.01 0.00 78 1018.7
20260506172002 60 326 0.9 7.0 0.00 0.01 0.00 78 1018.7
20260506171523 60 343 0.9 7.0 0.00 0.01 0.00 78 1018.7
20260506171002 60 344 0.9 4.3 0.00 0.01 0.00 79 1018.7
20260506170523 60 348 0.9 3.5 0.00 0.01 0.00 80 1018.7
20260506170002 59 349 0.9 3.5 0.00 0.01 0.00 80 1018.7
20260506165502 59 351 0.9 3.5 0.00 0.01 0.00 81 1018.7
20260506165002 59 353 0.9 3.5 0.00 0.01 0.00 82 1018.7
20260506164523 58 354 0.9 4.3 0.00 0.01 0.00 83 1018.7
20260506164002 58 355 1.7 4.3 0.00 0.01 0.00 83 1018.7
20260506163502 58 353 1.7 4.3 0.00 0.01 0.00 84 1018.7
20260506163023 58 352 1.7 4.3 0.00 0.02 0.00 86 1018.7
20260506162502 57 7 0.9 3.5 0.00 0.03 0.00 87 1018.7
20260506162002 56 29 0.0 2.6 0.00 0.04 0.00 87 1018.7
20260506161502 56 329 0.0 0.9 0.00 0.04 0.00 88 1018.7
20260506161002 56 329 0.0 0.9 0.00 0.05 0.00 89 1018.7
20260506160502 55 329 0.0 0.9 0.00 0.06 0.00 89 1018.7
20260506160002 55 329 0.0 0.9 0.00 0.06 0.00 89 1018.7
20260506155502 54 329 0.0 0.9 0.00 0.06 0.00 89 1018.7
20260506155002 54 0 0.0 0.0 0.00 0.06 0.00 89 1018.7
20260506154502 54 0 0.0 0.0 0.00 0.06 0.00 89 1018.7
20260506154002 54 329 0.9 2.6 0.00 0.06 0.00 89 1018.7
20260506153502 54 329 0.9 2.6 0.00 0.06 0.00 89 1018.7
20260506153023 54 334 0.9 3.5 0.00 0.06 0.00 90 1018.7
20260506152523 53 334 0.9 3.5 0.00 0.06 0.00 90 1018.7
20260506152002 53 334 0.0 2.6 0.00 0.06 0.00 90 1018.7
20260506151502 53 0 0.0 0.0 0.00 0.06 0.00 90 1018.7
20260506151002 53 0 0.0 0.0 0.00 0.06 0.00 90 1018.7
20260506150502 53 0 0.0 0.0 0.00 0.06 0.00 90 1018.7
20260506150002 53 0 0.0 0.0 0.00 0.06 0.00 90 1018.7
20260506145502 53 0 0.0 0.0 0.00 0.06 0.00 90 1018.7
20260506145002 53 0 0.0 0.0 0.00 0.06 0.00 90 1018.7
20260506144502 53 0 0.0 0.0 0.00 0.06 0.00 90 1018.7
20260506144002 53 0 0.0 0.0 0.00 0.06 0.00 90 1018.7
20260506143502 53 0 0.0 0.0 0.00 0.06 0.00 90 1018.7
20260506143002 52 0 0.0 0.0 0.00 0.06 0.00 91 1018.7
20260506142502 52 0 0.0 0.0 0.00 0.06 0.00 91 1018.7
20260506142002 52 0 0.0 0.0 0.00 0.06 0.00 90 1018.7
20260506141502 52 0 0.0 0.0 0.00 0.06 0.00 90 1018.7
20260506141002 52 0 0.0 0.0 0.00 0.06 0.00 90 1018.7
20260506140502 52 0 0.0 0.0 0.00 0.06 0.00 90 1018.7
20260506140023 52 0 0.0 0.0 0.00 0.06 0.00 90 1018.7
20260506135523 52 0 0.0 0.0 0.00 0.06 0.00 90 1018.7
20260506135002 52 0 0.0 0.0 0.00 0.06 0.00 90 1018.7
20260506134502 52 338 0.0 0.9 0.00 0.06 0.00 90 1018.7
20260506134002 52 338 0.0 0.9 0.00 0.06 0.00 90 1018.7
20260506133502 52 338 0.0 0.9 0.00 0.06 0.00 90 1018.7
20260506133002 52 338 0.0 1.7 0.00 0.06 0.00 90 1018.7
20260506132523 52 338 0.0 2.6 0.00 0.06 0.00 90 1018.7
20260506132002 52 338 0.0 2.6 0.00 0.06 0.00 90 1018.7
20260506131502 52 0 0.0 0.0 0.00 0.06 0.00 90 1018.7
20260506131002 52 0 0.0 0.0 0.00 0.06 0.00 90 1018.7
20260506130503 52 0 0.0 0.0 0.00 0.06 0.00 90 1018.7
20260506130003 52 0 0.0 0.0 0.00 0.06 0.00 90 1018.7
20260506125502 52 0 0.0 0.0 0.00 0.06 0.00 90 1018.7
20260506125023 52 0 0.0 0.0 0.00 0.06 0.00 90 1018.7
20260506124502 52 0 0.0 0.0 0.00 0.06 0.00 90 1018.7
20260506124002 52 0 0.0 0.0 0.00 0.06 0.00 90 1018.7
20260506123502 52 0 0.0 0.0 0.00 0.06 0.00 90 1018.7
20260506123002 52 0 0.0 0.0 0.00 0.06 0.00 90 1018.7
20260506122502 52 0 0.0 0.0 0.00 0.06 0.00 90 1018.7
20260506122002 52 0 0.0 0.0 0.00 0.06 0.00 90 1018.7
20260506121502 52 0 0.0 0.0 0.00 0.06 0.00 90 1018.7
20260506121024 52 0 0.0 0.0 0.00 0.06 0.00 90 1018.7
20260506120502 52 0 0.0 0.0 0.00 0.07 0.00 90 1018.7
20260506120002 52 331 0.0 2.6 0.00 0.07 0.00 90 1018.7
20260506115502 52 331 0.0 2.6 0.00 0.07 0.00 90 1018.7
20260506115002 52 329 0.0 0.9 0.00 0.07 0.00 90 1018.7
20260506114502 52 329 0.0 1.7 0.00 0.07 0.00 90 1018.7
20260506114002 52 329 0.0 1.7 0.00 0.07 0.00 90 1018.7
20260506113523 52 329 0.0 1.7 0.00 0.07 0.00 90 1018.7
20260506113002 52 329 0.0 1.7 0.00 0.07 0.00 90 1018.7
20260506112502 52 329 0.0 0.9 0.00 0.08 0.00 90 1018.7
20260506112002 52 329 0.0 0.9 0.00 0.08 0.00 90 1018.7
20260506111502 52 329 0.0 1.7 0.00 0.08 0.00 90 1018.7
20260506111002 52 329 0.0 1.7 0.00 0.08 0.00 90 1018.7
20260506110502 52 329 0.0 0.9 0.00 0.08 0.00 90 1018.7
20260506110002 52 329 0.0 0.9 0.00 0.08 0.00 90 1014.3
20260506105502 52 329 0.0 0.9 0.00 0.08 0.00 90 1014.3
20260506105002 52 328 0.0 1.7 0.00 0.08 0.00 90 1014.3
20260506104502 52 328 0.0 1.7 0.00 0.08 0.00 90 1014.3
20260506104002 52 0 0.0 0.0 0.00 0.08 0.00 90 1014.3
20260506103502 52 0 0.0 0.0 0.00 0.08 0.00 90 1014.3
20260506103002 52 0 0.0 0.0 0.00 0.08 0.00 90 1014.3
20260506102502 52 0 0.0 0.0 0.00 0.08 0.00 90 1014.3
20260506102002 52 0 0.0 0.0 0.00 0.09 0.00 90 1014.3
20260506101502 52 0 0.0 0.0 0.00 0.09 0.00 90 1014.3
20260506101002 52 0 0.0 0.0 0.00 0.09 0.00 90 1014.3
20260506100502 52 0 0.0 0.0 0.00 0.10 0.00 90 1014.3
20260506100003 52 0 0.0 0.0 0.00 0.10 0.00 90 1014.3
20260506095502 52 0 0.0 0.0 0.00 0.10 0.00 90 1014.3
20260506095002 52 0 0.0 0.0 0.00 0.10 0.00 90 1014.3
20260506094523 52 0 0.0 0.0 0.00 0.10 0.00 90 1014.3
20260506094002 52 0 0.0 0.0 0.00 0.10 0.00 90 1014.3
20260506093502 52 0 0.0 0.0 0.00 0.10 0.00 90 1014.3
20260506093002 52 0 0.0 0.0 0.00 0.10 0.00 90 1014.3
20260506092502 52 0 0.0 0.0 0.00 0.10 0.00 90 1014.3
20260506092003 52 0 0.0 0.0 0.00 0.10 0.00 90 1014.3
20260506091502 52 0 0.0 0.0 0.00 0.10 0.00 90 1014.3
20260506091002 52 0 0.0 0.0 0.00 0.10 0.00 90 1014.3
20260506090502 52 0 0.0 0.0 0.00 0.10 0.00 90 1014.3
20260506090002 52 0 0.0 0.0 0.00 0.10 0.00 90 1014.3
20260506085502 52 0 0.0 0.0 0.00 0.10 0.00 90 1014.3
20260506085024 52 0 0.0 0.0 0.00 0.10 0.00 90 1014.3
20260506084502 52 0 0.0 0.0 0.00 0.10 0.00 90 1014.3
20260506084002 52 0 0.0 0.0 0.00 0.10 0.00 90 1014.3
20260506083502 52 0 0.0 0.0 0.00 0.10 0.00 90 1014.3
20260506083002 52 0 0.0 0.0 0.00 0.10 0.00 90 1014.3
20260506082502 52 0 0.0 0.0 0.00 0.10 0.00 90 1014.3
20260506082002 52 0 0.0 0.0 0.00 0.10 0.00 90 1014.3
20260506081502 52 0 0.0 0.0 0.00 0.10 0.00 90 1014.3
20260506081002 52 0 0.0 0.0 0.00 0.10 0.00 90 1014.3
20260506080503 52 0 0.0 0.0 0.00 0.10 0.00 90 1014.3
20260506073502 52 0 0.0 0.0 0.00 0.10 0.00 89 1014.3
20260506073002 52 0 0.0 0.0 0.00 0.10 0.00 89 1014.3
20260506072503 52 0 0.0 0.0 0.00 0.10 0.00 89 1014.3
20260506072002 53 0 0.0 0.0 0.00 0.10 0.00 89 1014.3
20260506071503 53 0 0.0 0.0 0.00 0.10 0.00 89 1014.3
20260506071002 53 0 0.0 0.0 0.00 0.10 0.00 89 1014.3
20260506070503 53 0 0.0 0.0 0.00 0.10 0.00 89 1014.3
20260506062502 53 330 0.0 1.7 0.00 0.10 0.10 89 1014.3
20260506062002 53 327 0.0 1.7 0.00 0.10 0.10 89 1014.3
20260506061523 53 320 0.0 0.9 0.00 0.10 0.10 89 1014.3
20260506061002 53 0 0.0 0.0 0.00 0.10 0.10 89 1014.3
20260506060524 53 0 0.0 0.0 0.00 0.10 0.10 89 1014.3
20260506051003 54 269 0.0 0.9 0.00 0.10 0.10 88 1014.3
20260506050503 54 270 0.0 0.9 0.00 0.10 0.10 88 1014.3
20260506045003 54 281 0.0 0.9 0.00 0.10 0.10 88 1014.3
20260506044523 54 277 0.0 0.9 0.00 0.10 0.10 88 1014.3
20260506044003 54 270 0.0 0.9 0.00 0.10 0.10 88 1014.3
20260506043503 54 268 0.0 0.9 0.00 0.10 0.10 88 1014.3
20260506043003 54 269 0.0 0.9 0.00 0.10 0.10 88 1014.3
20260506042502 54 0 0.0 0.0 0.00 0.10 0.10 88 1014.3
20260506042002 54 0 0.0 0.0 0.00 0.10 0.10 88 1014.3
20260506041503 54 0 0.0 0.0 0.00 0.10 0.10 88 1014.3
20260506041003 54 0 0.0 0.0 0.00 0.10 0.10 88 1014.3
20260506040503 54 0 0.0 0.0 0.00 0.10 0.10 88 1014.3
20260506040003 54 0 0.0 0.0 0.00 0.10 0.10 88 1014.3
20260506035503 54 0 0.0 0.0 0.00 0.10 0.10 88 1014.3
20260506035003 54 0 0.0 0.0 0.00 0.10 0.10 88 1014.3
20260506034502 54 248 0.0 0.9 0.00 0.10 0.10 87 1014.3
20260506034024 54 268 0.0 2.6 0.00 0.10 0.10 87 1014.3
20260506033524 54 268 0.0 2.6 0.00 0.10 0.10 87 1014.3
20260506033003 54 227 0.0 1.7 0.00 0.10 0.10 87 1014.3
20260506032524 54 267 0.0 3.5 0.00 0.10 0.10 87 1014.3
20260506032024 54 249 0.0 3.5 0.00 0.10 0.10 87 1014.3
20260506031503 54 166 0.0 1.7 0.00 0.10 0.10 86 1014.3
20260506031002 55 154 0.0 0.9 0.00 0.10 0.10 87 1014.3
20260506030503 55 131 0.0 1.7 0.00 0.10 0.10 86 1014.3
20260506030003 55 179 0.0 1.7 0.00 0.10 0.10 86 1014.3
20260506025503 55 290 0.0 1.7 0.00 0.10 0.10 86 1014.3
20260506025024 55 339 0.0 1.7 0.00 0.10 0.10 86 1014.3
20260506024503 55 352 0.0 1.7 0.00 0.10 0.10 86 1014.3
20260506024003 55 350 0.0 1.7 0.00 0.10 0.10 85 1014.3
20260506023524 55 342 0.0 1.7 0.00 0.10 0.10 85 1014.3
20260506023003 55 324 0.0 0.9 0.00 0.10 0.10 85 1014.3
20260506022524 55 289 0.0 2.6 0.00 0.10 0.10 85 1014.3
20260506022024 55 279 0.0 2.6 0.00 0.10 0.10 85 1014.3
20260506021503 56 284 0.0 1.7 0.00 0.10 0.10 85 1014.3
20260506021024 56 268 0.0 1.7 0.00 0.10 0.10 85 1014.3
20260506020503 56 238 0.0 2.6 0.00 0.10 0.10 85 1014.3
20260506020003 56 238 0.0 2.6 0.00 0.10 0.10 84 1014.3
20260506015503 56 238 0.9 3.5 0.00 0.10 0.10 84 1014.3
20260506015003 56 233 0.9 3.5 0.00 0.10 0.10 84 1014.3
20260506014503 56 232 0.9 4.3 0.00 0.10 0.10 84 1014.3
20260506014024 56 243 0.0 4.3 0.00 0.10 0.10 84 1014.3
20260506013524 56 280 0.0 2.6 0.00 0.10 0.10 84 1014.3
20260506013024 57 292 0.0 1.7 0.00 0.10 0.10 84 1014.3
20260506012503 57 291 0.0 1.7 0.00 0.10 0.10 84 1014.3
20260506012003 57 277 0.0 1.7 0.00 0.10 0.10 84 1014.3
20260506011503 57 261 0.0 1.7 0.00 0.10 0.10 84 1014.3
20260506011024 57 260 0.0 1.7 0.00 0.10 0.10 84 1014.3
20260506010524 57 270 0.0 1.7 0.00 0.10 0.10 84 1014.3
20260506010003 57 283 0.0 1.7 0.00 0.10 0.10 84 1014.3
20260506005503 57 275 0.0 0.9 0.00 0.10 0.10 84 1014.3
20260506005003 57 297 0.0 1.7 0.00 0.10 0.10 84 1014.3
20260506004503 57 288 0.0 1.7 0.00 0.10 0.10 84 1014.3